Location: Auckland
(36.8670°S, 174.7670°E)
Time: 01:13:46
(UTC+13:00)

CZ-2D R/B - Pass Details

Date: 24 January 2019
Orbit: 521 x 540 km, 97.4° (Epoch: 20 February)

Event Time Altitude Azimuth Distance (km) Brightness Sun altitude
Rises 21:22:59 0° 172° (S) 2,734 7.2 -8.7°
Reaches altitude 10° 21:25:08 10° 174° (S) 1,834 6.4 -9.1°
Maximum altitude 21:29:04 68° 256° (WSW) 596 3.7 -9.7°
Drops below altitude 10° 21:32:57 10° 339° (NNW) 1,808 5.8 -10.4°
Sets 21:35:04 0° 341° (NNW) 2,691 6.7 -10.7°
